Location: Recife
(8.0585°S, 34.8848°W)
Time: 07:14:26
(UTC-03:00)

Vanguard 3 - Pass Details

Date: 21 April 2026
Orbit: 507 x 3205 km, 33.4° (Epoch: 13 May)

Event Time Altitude Azimuth Distance (km) Brightness Sun altitude
Rises 06:36:52 0° 287° (WNW) 4,001 10.2 17.3°
Reaches altitude 10° 06:39:13 10° 282° (WNW) 3,314 9.8 17.8°
Maximum altitude 06:47:47 54° 206° (SSW) 2,218 9.4 19.9°
Drops below altitude 10° 07:02:44 10° 133° (SE) 5,545 11.9 23.4°
Sets 07:08:00 0° 128° (SE) 6,852 12.3 24.7°
